Location: Unspecified
(0.0000°N, 0.0000°E)
Time: 14:31:11
(UTC+00:00)

deb Delta 126 - Pass Details

Date: 21 February 2026
Orbit: 1137 x 1258 km, 102.0° (Epoch: 8 March)

Event Time Altitude Azimuth Distance (km) Brightness Sun altitude
Rises 04:00:13 0° 182° (S) 4,195 ? -32.7°
Reaches altitude 10° 04:03:06 10° 190° (S) 3,234 ? -32.0°
Enters shadow 04:05:52 22° 205° (SSW) 2,432 ? -31.3°
